EW5627 Weather Reports


time (UTC)temp
F
wind
direction
speed
knots
gust
knots
rain 1hr
in
rain 24hr
in
rain mn
in
humidity
%
barometer
mb
20260504081510 46 215 0.0 0.0 0.00 0.00 0.00 59 1012.2
20260504044547 49 212 0.0 0.0 0.00 0.00 0.00 51 1011.4
20260504043107 48 212 0.0 0.0 0.00 0.00 0.00 51 1011.3
20260504041541 48 212 0.0 0.0 0.00 0.00 0.00 51 1011.2
20260504040042 49 212 0.0 0.0 0.00 0.00 0.00 52 1011.1
20260504034547 49 212 0.0 0.0 0.00 0.00 0.00 52 1011.2
20260504033037 49 212 0.0 0.0 0.00 0.00 0.00 52 1011.2
20260504031548 49 212 0.0 0.0 0.00 0.00 0.00 52 1011.1
20260504030050 50 212 0.0 0.0 0.00 0.00 0.00 50 1011.2
20260504024539 51 212 0.0 0.0 0.00 0.00 0.00 46 1011.3
20260504023035 51 212 0.0 0.0 0.00 0.00 0.00 45 1011.3
20260504021541 51 212 0.0 0.0 0.00 0.00 0.00 44 1011.2
20260504020037 52 212 0.0 0.0 0.00 0.00 0.00 43 1011.1
20260504014532 52 212 0.0 0.9 0.00 0.00 0.00 44 1011.1
20260504013035 52 212 0.0 0.9 0.00 0.00 0.00 43 1011.0
20260504011529 52 207 0.0 0.0 0.00 0.00 0.00 42 1010.9
20260504010026 52 200 0.0 0.0 0.00 0.00 0.00 41 1010.6
20260504004538 53 200 0.0 0.0 0.00 0.00 0.00 40 1010.6
20260504003023 53 200 0.0 0.0 0.00 0.00 0.00 38 1010.3
20260504001532 54 200 0.0 0.0 0.00 0.00 0.00 38 1010.1
20260504000023 54 200 0.0 0.9 0.00 0.00 0.00 37 1010.0
20260503234524 55 190 0.0 0.9 0.00 0.00 0.00 36 1009.7
20260503233022 55 128 0.0 0.9 0.00 0.00 0.00 34 1009.6
20260503231523 56 243 0.0 0.9 0.00 0.00 0.00 34 1009.3
20260503230026 56 338 0.0 0.0 0.00 0.00 0.00 32 1009.2
20260503224520 56 258 0.0 0.0 0.00 0.00 0.00 33 1009.0
20260503223020 56 63 0.0 0.9 0.00 0.00 0.00 32 1009.0
20260503221519 56 268 0.0 0.9 0.00 0.00 0.00 29 1009.0
20260503220029 57 219 0.0 0.9 0.00 0.00 0.00 29 1009.0
20260503214529 58 212 0.0 0.9 0.00 0.00 0.00 29 1009.0
20260503213028 59 238 0.0 1.7 0.00 0.00 0.00 29 1008.8
20260503211518 59 221 0.0 0.9 0.00 0.00 0.00 32 1008.8
20260503210019 59 211 0.0 0.9 0.00 0.00 0.00 31 1008.8
20260503204524 59 248 0.0 0.9 0.00 0.00 0.00 32 1008.7
20260503203015 59 263 0.0 0.0 0.00 0.00 0.00 31 1008.8
20260503201513 58 99 0.0 0.9 0.00 0.00 0.00 35 1008.8
20260503200011 59 261 0.0 0.9 0.00 0.00 0.00 36 1008.9
20260503194507 58 35 0.0 0.9 0.00 0.00 0.00 39 1009.0
20260503193007 57 89 0.0 2.6 0.00 0.00 0.00 35 1009.2
20260503191505 58 172 0.0 0.9 0.00 0.00 0.00 39 1009.2
20260503190005 56 206 0.0 0.9 0.00 0.00 0.00 38 1009.3
20260503184601 55 98 0.0 2.6 0.00 0.00 0.00 39 1009.6
20260503183105 54 296 0.0 0.9 0.00 0.00 0.00 39 1009.5
20260503181608 55 296 0.0 1.7 0.00 0.00 0.00 46 1009.6
20260503180057 54 209 0.0 1.7 0.00 0.00 0.00 43 1009.7
20260503174608 53 175 0.0 0.9 0.00 0.00 0.00 41 1009.6
20260503173058 55 5 0.0 1.7 0.00 0.00 0.00 40 1009.7
20260503171554 54 355 0.0 1.7 0.00 0.00 0.00 45 1009.9
20260503170104 54 251 0.0 0.9 0.00 0.00 0.00 39 1009.8